Regional Weather Roundup
Issued by NWS

Home | Current Version | Previous Version | Graphics & Text | Print | Product List | Glossary Off
Versions: 1 2 3 4 5 6 7 8 9 10 11 12 13 14 15 16 17 18 19 20 21 22 23 24 25 26 27 28 29 30 31 32 33 34 35 36 37 38 39 40 41 42 43 44 45 46 47 48 49 50

000
ASUS43 KMKX 291821
RWRWI

WISCONSIN REGIONAL WEATHER ROUNDUP
NATIONAL WEATHER SERVICE MILWAUKEE/SULLIVAN WI
100 PM CDT SAT AUG 29 2015

NOTE: "FAIR" INDICATES FEW OR NO CLOUDS BELOW 12,000 FEET WITH NO
SIGNIFICANT WEATHER AND/OR OBSTRUCTIONS TO VISIBILITY.

WIZ001-002-006>008-014>016-023>028-291900-
NORTHWEST WISCONSIN

CITY           SKY/WX    TMP DP  RH WIND       PRES   REMARKS
SUPERIOR ARPT  CLOUDY    71  61  70 W7        30.02F
6HR MIN TEMP:  59; 6HR MAX TEMP:  72;

ASHLAND        CLOUDY    72  62  71 CALM      30.04S
6HR MIN TEMP:  57; 6HR MAX TEMP:  73;

HAYWARD        SUNNY     71  59  65 S5        30.05F
6HR MIN TEMP:  56; 6HR MAX TEMP:  72;

SIREN          SUNNY     73  59  63 CALM      30.05F
6HR MIN TEMP:  55; 6HR MAX TEMP:  73;

CUMBERLAND     PTSUNNY   68  61  77 SW5       30.07F
RICE LAKE      MOSUNNY   70  60  72 CALM      30.08F
6HR MIN TEMP:  55; 6HR MAX TEMP:  70;

CHETEK         MOSUNNY  N/A N/A N/A CALM      30.07S
LADYSMITH      SUNNY     71  60  68 CALM      30.08F
6HR MIN TEMP:  53; 6HR MAX TEMP:  71;

EAU CLAIRE     CLOUDY    65  59  81 CALM      30.07S
6HR MIN TEMP:  56; 6HR MAX TEMP:  65;

MENOMONIE      CLOUDY    68  61  78 SE6       30.07S
6HR MIN TEMP:  56; 6HR MAX TEMP:  68;

NEW RICHMOND   MOSUNNY   66  60  80 CALM      30.07F
6HR MIN TEMP:  54; 6HR MAX TEMP:  66;

OSCEOLA        SUNNY     69  64  85 S3        30.09F
6HR MIN TEMP:  55; 6HR MAX TEMP:  69;

$$

WIZ003>005-009-010-017-018-291900-
NORTH CENTRAL WISCONSIN

CITY           SKY/WX    TMP DP  RH WIND       PRES   REMARKS
MANITOWISH WTR SUNNY     72  59  62 SW6       30.06F
6HR MIN TEMP:  55; 6HR MAX TEMP:  72;

ARBOR VITAE    SUNNY     72  60  65 SW3       30.06F
6HR MIN TEMP:  57; 6HR MAX TEMP:  72;

WOODRUFF       SUNNY     72  60  65 SW3       30.06F
6HR MIN TEMP:  57; 6HR MAX TEMP:  72;

RHINELANDER    SUNNY     69  58  67 S7        30.09S
6HR MIN TEMP:  54; 6HR MAX TEMP:  69;

EAGLE RIVER    SUNNY     71  55  57 W3        30.06F
6HR MIN TEMP:  54; 6HR MAX TEMP:  71;

LAND O LAKES   PTSUNNY   74  58  55 W3        30.07F
6HR MIN TEMP:  56; 6HR MAX TEMP:  74; 6HR PCP:  0.01;

PHILLIPS       SUNNY     71  59  66 SW5       30.06F
6HR MIN TEMP:  51; 6HR MAX TEMP:  70;

TOMAHAWK       CLOUDY    66  59  76 CALM      30.09S
6HR MIN TEMP:  52; 6HR MAX TEMP:  66;

MEDFORD        CLOUDY    64  60  87 CALM      30.08F
6HR MIN TEMP:  54; 6HR MAX TEMP:  64;

MERRILL        CLOUDY    66  60  81 CALM      30.09S
6HR MIN TEMP:  55; 6HR MAX TEMP:  65;

$$

WIZ029-030-035-036-043>047-291900-
CENTRAL WISCONSIN

CITY           SKY/WX    TMP DP  RH WIND       PRES   REMARKS
WAUSAU         CLOUDY    64  59  83 CALM      30.06F
6HR MIN TEMP:  58; 6HR MAX TEMP:  64;

MOSINEE        CLOUDY    63  61  94 CALM      30.09S
MARSHFIELD     CLOUDY    65  58  78 SE3       30.08R
6HR MIN TEMP:  59; 6HR MAX TEMP:  65;

STEVENS POINT  CLOUDY    62  58  88 CALM      30.08S
6HR MIN TEMP:  57; 6HR MAX TEMP:  62;

WAUPACA        CLOUDY    67  63  86 E3        30.08S
6HR MIN TEMP:  60; 6HR MAX TEMP:  67; 6HR PCP:  0.03;

WAUTOMA        CLOUDY    66  63  90 CALM      30.07S
6HR MIN TEMP:  60; 6HR MAX TEMP:  66;

WISC RAPIDS    NOT AVBL
CAMP DOUGLAS   CLOUDY    68  68 100 VRB3      30.05S
$$

WIZ011>013-019>022-031-037>040-048>050-291900-
NORTHEAST WISCONSIN

CITY           SKY/WX    TMP DP  RH WIND       PRES   REMARKS
ANTIGO         CLOUDY    64  59  85 S3        30.09F
SHAWANO        CLOUDY    67  61  80 CALM      30.08S
6HR MIN TEMP:  60; 6HR MAX TEMP:  67; 6HR PCP:  0.01;

OCONTO         CLOUDY    66  64  92 S6        30.07F
6HR MIN TEMP:  57; 6HR MAX TEMP:  66;

STURGEON BAY   CLOUDY    64  59  82 S10       30.09F
6HR MIN TEMP:  59; 6HR MAX TEMP:  64;

GREEN BAY      CLOUDY    68  62  81 CALM      30.07F
6HR MIN TEMP:  60; 6HR MAX TEMP:  68;

MANITOWOC      CLOUDY    67  62  84 MISG      30.07F
6HR MIN TEMP:  56; 6HR MAX TEMP:  67;

APPLETON       CLOUDY    66  63  88 E5        30.06S
CLINTONVILLE   CLOUDY    64  61  88 SE7       30.07S
OSHKOSH        CLOUDY    67  61  81 E5        30.05F
6HR MIN TEMP:  60; 6HR MAX TEMP:  65;

$$

WIZ032>034-041-042-053>061-291900-
SOUTHWEST WISCONSIN

CITY           SKY/WX    TMP DP  RH WIND       PRES   REMARKS
LA CROSSE      CLOUDY    68  61  78 NW3       30.05F
6HR MIN TEMP:  61; 6HR MAX TEMP:  69;

SPARTA         CLOUDY    67  59  74 NE5       30.06F
6HR MIN TEMP:  59; 6HR MAX TEMP:  67;

VIROQUA          N/A     67  63  86 NE7       30.06S
6HR MIN TEMP:  58; 6HR MAX TEMP:  69;

BOSCOBEL       CLOUDY    71  63  75 NE6       30.03S
6HR MIN TEMP:  63; 6HR MAX TEMP:  71;

PRAIRIE DU CHI CLOUDY    69  61  75 NE5       30.03S
6HR MIN TEMP:  62; 6HR MAX TEMP:  69;

PLATTEVILLE    CLOUDY    70  65  86 N3        30.02F
6HR MIN TEMP:  64; 6HR MAX TEMP:  70;

$$

WIZ056-057-062-063-064-067-068-291900-
SOUTH CENTRAL WISCONSIN

CITY           SKY/WX    TMP DP  RH WIND       PRES   REMARKS
REEDSBURG      CLOUDY    66  62  87 NE6       30.04S
6HR MIN TEMP:  59; 6HR MAX TEMP:  67; 6HR PCP:  0.01;

BARABOO/DELLS  CLOUDY    65  61  86 CALM      30.05R
6HR MIN TEMP:  60; 6HR MAX TEMP:  65; 6HR PCP:  0.01;

LONE ROCK      CLOUDY    69  63  81 N5        30.04R
6HR MIN TEMP:  64; 6HR MAX TEMP:  68;

MINERAL POINT  CLOUDY    70  64  83 NE5       30.03S
MADISON        CLOUDY    66  62  87 SE6       30.03S
6HR MIN TEMP:  62; 6HR MAX TEMP:  67; 6HR PCP:  0.02;

MIDDLETON      CLOUDY    67  66  94 E3        30.04S
6HR MIN TEMP:  64; 6HR MAX TEMP:  67; 6HR PCP:  0.01;

WATERTOWN      CLOUDY    64  64 100 CALM      30.04R
6HR MIN TEMP:  60; 6HR MAX TEMP:  64; 6HR PCP:  0.07;

MONROE         CLOUDY    66  63  88 CALM      30.03R
JANESVILLE     NOT AVBL
$$

WIZ051-052-058>065-066-070>072-291900-
SOUTHEAST WISCONSIN

CITY           SKY/WX    TMP DP  RH WIND       PRES   REMARKS
MILWAUKEE      CLOUDY    64  61  90 SE6       30.04F
6HR MIN TEMP:  57; 6HR MAX TEMP:  64; 6HR PCP:  0.09;

WAUKESHA       CLOUDY    61  61 100 SE5       30.05F FOG
MILWAUKEE/TIMM CLOUDY    63  61  94 SE3       30.05F FOG
RACINE         CLOUDY    65  61  87 SE8       30.05F FOG
6HR MIN TEMP:  61; 6HR MAX TEMP:  65; 6HR PCP:  0.13;

BURLINGTON     CLOUDY    64  62  93 CALM      30.03S
6HR MIN TEMP:  59; 6HR MAX TEMP:  64;

KENOSHA        CLOUDY    68  65  90 SE8       30.03F
6HR MIN TEMP:  61; 6HR MAX TEMP:  68; 6HR PCP:  0.35;

FOND DU LAC    CLOUDY    66  62  87 S5        30.06S
6HR MIN TEMP:  60; 6HR MAX TEMP:  67; 6HR PCP:  0.03;

SHEBOYGAN      CLOUDY    65  62  90 S5        30.07R
6HR MIN TEMP:  57; 6HR MAX TEMP:  66;

WEST BEND      CLOUDY    63  59  88 CALM      30.06R
JUNEAU         CLOUDY    64  62  92 E3        30.06S
6HR MIN TEMP:  58; 6HR MAX TEMP:  64; 6HR PCP:  0.03;

$$

LSZ147-162-291900-
LAKE SUPERIOR

STATION/POSITION TIME  TEMP    WIND        PRES    WAVE
                       AIR SEA DIR/SP/G            HT/PER
                 (UTC) (F)     (DEG/KT/KT) (MB)    (FT/S)
W MID LAKE BUOY  1750   58 54  220/ 12/ 14 1016.3F   2/ 5
DEVILS ISLAND    1800   62     220/ 14/ 16 1016.5F
PORT WING        1700   61     290/  7/  8 1017.3S
SAXON HARBOR     1700   70      CALM  /  4 1016.9
$$

LMZ867-665-643>646-291900-
LAKE MICHIGAN

STATION/POSITION TIME  TEMP    WIND        PRES    WAVE
                       AIR SEA DIR/SP/G            HT/PER
                 (UTC) (F)     (DEG/KT/KT) (MB)    (FT/S)
CHAMBERS ISLAND  1700   65     160/  5/  9 1018.6F
S GREEN BAY BUOY 1700   62 62  310/  2/  2 1020.0F


USA.gov is the U.S. government's official web portal to all federal, state and local government web resources and services.